Location: Casco Millpond
(44.5581°N, 87.6111°W)
Time: 23:16:57
(UTC+00:00)

Gblst 52 Del rocket - Pass Details

Date: 16 January 2026
Orbit: 805 x 1364 km, 51.5° (Epoch: 13 February)

Event Time Altitude Azimuth Distance (km) Brightness Sun altitude
Exits shadow 12:04:58 19° 301° (WNW) 1,857 5.4 -13.7°
Maximum altitude 12:09:02 86° 29° (NNE) 815 4.1 -13.0°
Drops below altitude 10° 12:14:41 10° 120° (ESE) 2,452 8.0 -12.0°
Sets 12:17:15 0° 120° (ESE) 3,436 9.2 -11.6°
